This is the latest recevied weather packets stored in our database for station/object KB2AHZ. If no packets are shown the sender has not sent any weather packets the latest 10 day(s).
| Time | Temp. | Humidity | Pressure | Rain* | Wind** | Luminosity | Snow |
|---|---|---|---|---|---|---|---|
| 1777906584 | 21.11° C | 41% | 1016.8 hPa | 0 mm | - | 784 W/m² | - |
| 1777906280 | 21.11° C | 43% | 1016.8 hPa | 0 mm | - | 774 W/m² | - |
| 1777905977 | 21.11° C | 46% | 1017 hPa | 0 mm | - | 762 W/m² | - |
| 1777905673 | 20.56° C | 45% | 1016.9 hPa | 0 mm | - | 748 W/m² | - |
| 1777905370 | 20° C | 47% | 1016.9 hPa | 0 mm | - | 738 W/m² | - |
| 1777905068 | 20° C | 53% | 1016.9 hPa | 0 mm | - | 726 W/m² | - |
| 1777904765 | 20° C | 51% | 1017 hPa | 0 mm | - | 715 W/m² | - |
| 1777904462 | 18.89° C | 51% | 1016.9 hPa | 0 mm | - | 655 W/m² | - |
| 1777904159 | 19.44° C | 56% | 1017.2 hPa | 0 mm | - | 616 W/m² | - |
| 1777903856 | 19.44° C | 56% | 1017 hPa | 0 mm | - | 645 W/m² | - |
| 1777903552 | 18.33° C | 58% | 1017.1 hPa | 0 mm | - | 578 W/m² | - |
| 1777903248 | 17.78° C | 58% | 1016.9 hPa | 0 mm | - | 647 W/m² | - |
| 1777902945 | 17.78° C | 58% | 1017.2 hPa | 0 mm | - | 530 W/m² | - |
| 1777902642 | 17.22° C | 60% | 1017 hPa | 0 mm | - | 587 W/m² | - |
| 1777902339 | 17.78° C | 59% | 1017.1 hPa | 0 mm | - | 612 W/m² | - |
| 1777902036 | 16.67° C | 63% | 1016.9 hPa | 0 mm | - | 581 W/m² | - |
| 1777901734 | 16.67° C | 64% | 1017.1 hPa | 0 mm | - | 554 W/m² | - |
| 1777901431 | 16.11° C | 64% | 1016.9 hPa | 0 mm | - | 532 W/m² | - |
| 1777901129 | 15.56° C | 68% | 1017.2 hPa | 0 mm | - | 515 W/m² | - |
| 1777900827 | 16.11° C | 67% | 1017 hPa | 0 mm | - | 502 W/m² | - |
| 1777900523 | 15.56° C | 66% | 1017.3 hPa | 0 mm | - | 275 W/m² | - |
| 1777900220 | 16.11° C | 68% | 1017.3 hPa | 0 mm | - | 428 W/m² | - |
| 1777899916 | 14.44° C | 70% | 1017.1 hPa | 0 mm | - | 503 W/m² | - |
| 1777899614 | 13.89° C | 71% | 1017.2 hPa | 0 mm | - | 463 W/m² | - |
| 1777899311 | 13.33° C | 73% | 1017.2 hPa | 0 mm | - | 425 W/m² | - |
* Rain latest hour (hover to see other rain measurements)
** Current wind speed in m/s (hover to see current wind gust speed)